Stündliche Wetter Cazones

Heute, 31 Oktober, Samstag

Zeit Temperatur Niederschläge Wind Luftdruck Luftfeuchtigkeit
00:00 +18°C° 0 mm 2 m/S 765 mmHg 75%
01:00 +18°C° 0 mm 3 m/S 765 mmHg 77%
02:00 +17°C° 0 mm 3 m/S 764 mmHg 80%
03:00 +17°C° 0 mm 3 m/S 764 mmHg 82%
04:00 +17°C° 0 mm 2 m/S 764 mmHg 82%
05:00 +17°C° 0 mm 2 m/S 764 mmHg 82%
06:00 +17°C° 0 mm 2 m/S 764 mmHg 82%
07:00 +19°C° 0 mm 2 m/S 764 mmHg 78%
08:00 +20°C° 0 mm 2 m/S 765 mmHg 73%
09:00 +23°C° 0 mm 2 m/S 765 mmHg 69%
10:00 +24°C° 0 mm 2 m/S 765 mmHg 65%
11:00 +25°C° 0 mm 3 m/S 765 mmHg 61%
12:00 +26°C° 0 mm 3 m/S 764 mmHg 57%
13:00 +27°C° 0 mm 3 m/S 763 mmHg 57%
14:00 +27°C° 0 mm 3 m/S 763 mmHg 57%
15:00 +27°C° 0 mm 2 m/S 762 mmHg 57%
16:00 +26°C° 0 mm 2 m/S 762 mmHg 63%
17:00 +24°C° 0 mm 2 m/S 763 mmHg 69%
18:00 +23°C° 0 mm 2 m/S 763 mmHg 76%
19:00 +21°C° 0 mm 2 m/S 763 mmHg 77%
20:00 +22°C° 0 mm 1 m/S 764 mmHg 78%
21:00 +22°C° 0 mm 1 m/S 765 mmHg 80%
22:00 +21°C° 0 mm 1 m/S 765 mmHg 80%
23:00 +20°C° 0 mm 2 m/S 764 mmHg 80%

Morgen, 1 November, Sonntag

Zeit Temperatur Niederschläge Wind Luftdruck Luftfeuchtigkeit
00:00 +20°C° 0 mm 2 m/S 764 mmHg 80%
01:00 +20°C° 0 mm 2 m/S 764 mmHg 81%
02:00 +20°C° 0 mm 3 m/S 764 mmHg 82%
03:00 +19°C° 0 mm 3 m/S 764 mmHg 83%
04:00 +19°C° 0 mm 3 m/S 764 mmHg 83%
05:00 +19°C° 0 mm 3 m/S 764 mmHg 83%
06:00 +19°C° 0 mm 3 m/S 764 mmHg 83%
07:00 +20°C° 0 mm 3 m/S 765 mmHg 80%
08:00 +22°C° 0 mm 3 m/S 766 mmHg 77%
09:00 +24°C° 0 mm 3 m/S 766 mmHg 73%
10:00 +23°C° 0.1 mm 4 m/S 766 mmHg 77%
11:00 +22°C° 0.1 mm 4 m/S 766 mmHg 81%
12:00 +22°C° 0.1 mm 4 m/S 766 mmHg 85%
13:00 +22°C° 0.6 mm 4 m/S 765 mmHg 88%
14:00 +21°C° 0.6 mm 4 m/S 765 mmHg 90%
15:00 +21°C° 0.6 mm 4 m/S 764 mmHg 93%
16:00 +21°C° 0.9 mm 4 m/S 765 mmHg 93%
17:00 +21°C° 0.9 mm 4 m/S 765 mmHg 93%
18:00 +21°C° 0.9 mm 4 m/S 765 mmHg 93%
19:00 +21°C° 0.2 mm 4 m/S 766 mmHg 93%
20:00 +21°C° 0.2 mm 4 m/S 767 mmHg 92%
21:00 +22°C° 0.2 mm 4 m/S 767 mmHg 91%
22:00 +21°C° 0.1 mm 4 m/S 767 mmHg 90%
23:00 +21°C° 0.1 mm 4 m/S 767 mmHg 90%

übermorgen, 2 November, Montag

Zeit Temperatur Niederschläge Wind Luftdruck Luftfeuchtigkeit
00:00 +21°C° 0.1 mm 4 m/S 767 mmHg 90%
01:00 +21°C° 0.2 mm 4 m/S 767 mmHg 91%
02:00 +20°C° 0.2 mm 4 m/S 767 mmHg 91%
03:00 +20°C° 0.2 mm 5 m/S 767 mmHg 92%
04:00 +19°C° 0.1 mm 5 m/S 767 mmHg 92%
05:00 +19°C° 0.1 mm 5 m/S 768 mmHg 92%
06:00 +19°C° 0.1 mm 5 m/S 768 mmHg 92%
07:00 +20°C° 0.1 mm 5 m/S 768 mmHg 88%
08:00 +21°C° 0.1 mm 6 m/S 769 mmHg 83%
09:00 +22°C° 0.1 mm 6 m/S 769 mmHg 79%
10:00 +23°C° 0 mm 6 m/S 769 mmHg 74%
11:00 +24°C° 0 mm 7 m/S 768 mmHg 69%
12:00 +26°C° 0 mm 7 m/S 768 mmHg 64%
13:00 +26°C° 0.1 mm 6 m/S 767 mmHg 66%
14:00 +24°C° 0.1 mm 6 m/S 767 mmHg 68%
15:00 +25°C° 0.1 mm 5 m/S 766 mmHg 70%
16:00 +23°C° 0.1 mm 4 m/S 766 mmHg 72%
17:00 +23°C° 0.1 mm 4 m/S 766 mmHg 73%
18:00 +22°C° 0.1 mm 3 m/S 766 mmHg 75%
19:00 +22°C° 0.1 mm 3 m/S 767 mmHg 77%
20:00 +21°C° 0.1 mm 3 m/S 767 mmHg 78%
21:00 +20°C° 0.1 mm 3 m/S 767 mmHg 80%
22:00 +20°C° 0.2 mm 4 m/S 767 mmHg 77%
23:00 +21°C° 0.2 mm 4 m/S 767 mmHg 75%

3 November, Dienstag

Zeit Temperatur Niederschläge Wind Luftdruck Luftfeuchtigkeit
00:00 +21°C° 0.2 mm 4 m/S 767 mmHg 72%
01:00 +20°C° 0.9 mm 4 m/S 766 mmHg 78%
02:00 +20°C° 0.9 mm 4 m/S 766 mmHg 84%
03:00 +19°C° 0.9 mm 5 m/S 765 mmHg 91%
04:00 +19°C° 0.8 mm 5 m/S 765 mmHg 91%
05:00 +19°C° 0.8 mm 5 m/S 766 mmHg 91%
06:00 +19°C° 0.8 mm 5 m/S 766 mmHg 91%
07:00 +19°C° 0.4 mm 5 m/S 766 mmHg 90%
08:00 +19°C° 0.4 mm 5 m/S 767 mmHg 90%
09:00 +19°C° 0.4 mm 5 m/S 767 mmHg 89%
10:00 +20°C° 0.3 mm 5 m/S 767 mmHg 88%
11:00 +20°C° 0.3 mm 5 m/S 766 mmHg 87%
12:00 +20°C° 0.3 mm 5 m/S 766 mmHg 86%
13:00 +20°C° 0.1 mm 4 m/S 765 mmHg 86%
14:00 +21°C° 0.1 mm 4 m/S 764 mmHg 85%
15:00 +21°C° 0.1 mm 3 m/S 764 mmHg 85%
16:00 +21°C° 0.1 mm 3 m/S 764 mmHg 85%
17:00 +21°C° 0.1 mm 3 m/S 764 mmHg 86%
18:00 +20°C° 0.1 mm 2 m/S 765 mmHg 86%
19:00 +20°C° 0.1 mm 3 m/S 765 mmHg 85%
20:00 +20°C° 0.1 mm 3 m/S 765 mmHg 85%
21:00 +20°C° 0.1 mm 3 m/S 766 mmHg 84%
22:00 +20°C° 0 mm 3 m/S 765 mmHg 84%
23:00 +20°C° 0 mm 3 m/S 765 mmHg 84%

4 November, Mittwoch

Zeit Temperatur Niederschläge Wind Luftdruck Luftfeuchtigkeit
00:00 +19°C° 0 mm 3 m/S 765 mmHg 83%
01:00 +19°C° 0 mm 3 m/S 765 mmHg 83%
02:00 +19°C° 0 mm 2 m/S 764 mmHg 83%
03:00 +19°C° 0 mm 2 m/S 764 mmHg 83%
04:00 +19°C° 0 mm 2 m/S 764 mmHg 82%
05:00 +19°C° 0 mm 2 m/S 764 mmHg 82%
06:00 +19°C° 0 mm 2 m/S 764 mmHg 82%
07:00 +20°C° 0 mm 2 m/S 765 mmHg 79%
08:00 +21°C° 0 mm 2 m/S 765 mmHg 77%
09:00 +23°C° 0 mm 2 m/S 765 mmHg 74%
10:00 +24°C° 0.1 mm 2 m/S 765 mmHg 72%
11:00 +25°C° 0.1 mm 2 m/S 765 mmHg 70%
12:00 +26°C° 0.1 mm 2 m/S 764 mmHg 68%
13:00 +25°C° 0.1 mm 2 m/S 764 mmHg 73%
14:00 +25°C° 0.1 mm 2 m/S 763 mmHg 78%
15:00 +24°C° 0.1 mm 2 m/S 763 mmHg 83%
16:00 +24°C° 0.1 mm 1 m/S 763 mmHg 84%
17:00 +23°C° 0.1 mm 1 m/S 763 mmHg 85%
18:00 +23°C° 0.1 mm 1 m/S 764 mmHg 86%
19:00 +23°C° 0.2 mm 1 m/S 764 mmHg 88%
20:00 +22°C° 0.2 mm 1 m/S 764 mmHg 90%
21:00 +21°C° 0.2 mm 2 m/S 765 mmHg 92%
22:00 +21°C° 0.1 mm 2 m/S 765 mmHg 92%
23:00 +21°C° 0.1 mm 2 m/S 765 mmHg 91%

5 November, Donnerstag

Zeit Temperatur Niederschläge Wind Luftdruck Luftfeuchtigkeit
00:00 +21°C° 0.1 mm 2 m/S 765 mmHg 91%
01:00 +21°C° 0.2 mm 2 m/S 764 mmHg 90%
02:00 +21°C° 0.2 mm 2 m/S 764 mmHg 89%
03:00 +21°C° 0.2 mm 2 m/S 764 mmHg 89%
04:00 +21°C° 0.1 mm 2 m/S 764 mmHg 89%
05:00 +21°C° 0.1 mm 2 m/S 764 mmHg 89%
06:00 +20°C° 0.1 mm 2 m/S 764 mmHg 89%
07:00 +23°C° 0.1 mm 2 m/S 764 mmHg 85%
08:00 +24°C° 0.1 mm 2 m/S 764 mmHg 81%
09:00 +25°C° 0.1 mm 2 m/S 764 mmHg 77%
10:00 +26°C° 0.2 mm 3 m/S 764 mmHg 73%
11:00 +27°C° 0.2 mm 3 m/S 763 mmHg 69%
12:00 +28°C° 0.2 mm 3 m/S 763 mmHg 65%
13:00 +28°C° 0.2 mm 4 m/S 763 mmHg 67%
14:00 +28°C° 0.2 mm 4 m/S 762 mmHg 68%
15:00 +28°C° 0.2 mm 4 m/S 761 mmHg 70%
16:00 +26°C° 0 mm 4 m/S 762 mmHg 73%
17:00 +25°C° 0 mm 3 m/S 762 mmHg 76%
18:00 +24°C° 0 mm 2 m/S 762 mmHg 79%
19:00 +24°C° 0 mm 2 m/S 762 mmHg 80%
20:00 +23°C° 0 mm 1 m/S 763 mmHg 82%
21:00 +22°C° 0 mm 1 m/S 763 mmHg 84%
22:00 +22°C° 0 mm 1 m/S 763 mmHg 85%
23:00 +21°C° 0 mm 2 m/S 763 mmHg 87%
Mehr zeigen